BEIDOU-2 IGSO-5

Last updated on Sun Sep 20 2026 00:02:57 GMT+0000 (Coordinated Universal Time)

1 37948U 11073A 26261.72852440 -.00000129 00000+0 00000+0 0 9993 2 37948 47.5134 270.3747 0116604 224.4140 220.9898 1.00277777 54074
UTC large
Height (km)
Speed (km/s)
/
Latitude / Longitude
Inclination (degrees)
Orbital Period (minutes)
Azimuth
Elevation
Range (km)
Doppler Factor

Next 0 passes for location: London (51.5072 / 0.1276)

No passes found over London.
BEIDOU-2 IGSO-5